02-04-2022, 00:00:07,    345,    0.0,   -1.4,   0.00,   0.00, 1017.4,   85.2, -999.0
02-04-2022, 00:00:16,    345,    0.0,   -1.3,   0.00,   0.00, 1017.4,   85.2, -999.0
02-04-2022, 00:00:26,    344,    0.0,   -1.3,   0.00,   0.00, 1017.4,   85.2, -999.0
02-04-2022, 00:00:37,    344,    0.0,   -1.3,   0.00,   0.00, 1017.4,   85.2, -999.0
02-04-2022, 00:00:46,    344,    0.0,   -1.3,   0.00,   0.00, 1017.4,   85.3, -999.0
02-04-2022, 00:00:56,    344,    0.0,   -1.3,   0.00,   0.00, 1017.4,   85.3, -999.0
02-04-2022, 00:01:06,    344,    0.0,   -1.3,   0.00,   0.00, 1017.4,   85.3, -999.0
02-04-2022, 00:01:16,    344,    0.0,   -1.2,   0.00,   0.00, 1017.4,   85.3, -999.0
02-04-2022, 00:01:26,    344,    0.0,   -1.3,   0.00,   0.00, 1017.4,   85.1, -999.0
02-04-2022, 00:01:36,    344,    0.0,   -1.4,   0.00,   0.00, 1017.4,   85.3, -999.0
02-04-2022, 00:01:46,    344,    0.0,   -1.3,   0.00,   0.00, 1017.4,   85.2, -999.0
02-04-2022, 00:01:56,    344,    0.0,   -1.3,   0.00,   0.00, 1017.4,   85.1, -999.0
02-04-2022, 00:02:06,    344,    0.0,   -1.4,   0.00,   0.00, 1017.4,   85.2, -999.0
02-04-2022, 00:02:16,    344,    0.0,   -1.3,   0.00,   0.00, 1017.4,   85.3, -999.0
02-04-2022, 00:02:26,    344,    0.0,   -1.3,   0.00,   0.00, 1017.4,   85.2, -999.0
02-04-2022, 00:02:36,    344,    0.0,   -1.3,   0.00,   0.00, 1017.4,   85.4, -999.0
02-04-2022, 00:02:46,    344,    0.0,   -1.3,   0.00,   0.00, 1017.4,   85.4, -999.0
02-04-2022, 00:02:56,    344,    0.0,   -1.3,   0.00,   0.00, 1017.4,   85.4, -999.0
02-04-2022, 00:03:06,    345,    0.0,   -1.3,   0.00,   0.00, 1017.4,   85.5, -999.0
02-04-2022, 00:03:16,    344,    0.0,   -1.3,   0.00,   0.00, 1017.4,   85.5, -999.0
02-04-2022, 00:03:26,    344,    0.0,   -1.4,   0.00,   0.00, 1017.4,   85.5, -999.0
02-04-2022, 00:03:35,    344,    0.0,   -1.3,   0.00,   0.00, 1017.4,   85.4, -999.0
02-04-2022, 00:03:46,    344,    0.0,   -1.4,   0.00,   0.00, 1017.4,   85.4, -999.0
02-04-2022, 00:03:55,    344,    0.0,   -1.4,   0.00,   0.00, 1017.4,   85.3, -999.0
02-04-2022, 00:04:05,    344,    0.0,   -1.4,   0.00,   0.00, 1017.4,   85.3, -999.0
02-04-2022, 00:04:15,    344,    0.0,   -1.4,   0.00,   0.00, 1017.4,   85.2, -999.0
02-04-2022, 00:04:25,    344,    0.0,   -1.5,   0.00,   0.00, 1017.4,   85.3, -999.0
02-04-2022, 00:04:35,    344,    0.0,   -1.4,   0.00,   0.00, 1017.4,   85.3, -999.0
02-04-2022, 00:04:45,    344,    0.0,   -1.3,   0.00,   0.00, 1017.4,   85.4, -999.0
02-04-2022, 00:04:55,    345,    0.0,   -1.3,   0.00,   0.00, 1017.4,   85.5, -999.0
02-04-2022, 00:05:05,    344,    0.0,   -1.3,   0.00,   0.00, 1017.4,   85.6, -999.0
02-04-2022, 00:05:15,    344,    0.0,   -1.3,   0.00,   0.00, 1017.3,   85.6, -999.0
02-04-2022, 00:05:25,    344,    0.0,   -1.4,   0.00,   0.00, 1017.3,   85.5, -999.0
02-04-2022, 00:05:35,    344,    0.0,   -1.3,   0.00,   0.00, 1017.4,   85.5, -999.0
02-04-2022, 00:05:45,    344,    0.0,   -1.3,   0.00,   0.00, 1017.4,   85.6, -999.0
02-04-2022, 00:05:55,    344,    0.0,   -1.3,   0.00,   0.00, 1017.4,   85.5, -999.0
02-04-2022, 00:06:05,    344,    0.0,   -1.3,   0.00,   0.00, 1017.4,   85.6, -999.0
02-04-2022, 00:06:15,    344,    0.0,   -1.3,   0.00,   0.00, 1017.4,   85.5, -999.0
02-04-2022, 00:06:25,    344,    0.0,   -1.3,   0.00,   0.00, 1017.4,   85.5, -999.0
02-04-2022, 00:06:35,    344,    0.0,   -1.4,   0.00,   0.00, 1017.4,   85.5, -999.0
02-04-2022, 00:06:44,    345,    0.0,   -1.4,   0.00,   0.00, 1017.4,   85.3, -999.0
02-04-2022, 00:06:55,    344,    0.0,   -1.4,   0.00,   0.00, 1017.4,   85.4, -999.0
02-04-2022, 00:07:05,    344,    0.0,   -1.4,   0.00,   0.00, 1017.4,   85.4, -999.0
02-04-2022, 00:07:14,    344,    0.0,   -1.4,   0.00,   0.00, 1017.4,   85.4, -999.0
02-04-2022, 00:07:24,    344,    0.0,   -1.4,   0.00,   0.00, 1017.4,   85.3, -999.0
02-04-2022, 00:07:35,    344,    0.0,   -1.4,   0.00,   0.00, 1017.4,   85.4, -999.0
02-04-2022, 00:07:44,    344,    0.0,   -1.4,   0.00,   0.00, 1017.4,   85.5, -999.0
02-04-2022, 00:07:54,    344,    0.0,   -1.4,   0.00,   0.00, 1017.4,   85.4, -999.0
02-04-2022, 00:08:04,    344,    0.0,   -1.5,   0.00,   0.00, 1017.4,   85.3, -999.0
02-04-2022, 00:08:14,    344,    0.0,   -1.5,   0.00,   0.00, 1017.4,   85.3, -999.0
02-04-2022, 00:08:24,    344,    0.0,   -1.5,   0.00,   0.00, 1017.4,   85.4, -999.0
02-04-2022, 00:08:34,    344,    0.0,   -1.5,   0.00,   0.00, 1017.4,   85.2, -999.0
02-04-2022, 00:08:46,    344,    0.0,   -1.5,   0.00,   0.00, 1017.4,   85.4, -999.0
02-04-2022, 00:08:54,    344,    0.0,   -1.4,   0.00,   0.00, 1017.4,   85.2, -999.0
02-04-2022, 00:09:04,    344,    0.0,   -1.5,   0.00,   0.00, 1017.4,   85.3, -999.0
02-04-2022, 00:09:14,    344,    0.0,   -1.5,   0.00,   0.00, 1017.4,   85.2, -999.0
02-04-2022, 00:09:24,    344,    0.0,   -1.5,   0.00,   0.00, 1017.4,   85.3, -999.0
02-04-2022, 00:09:34,    344,    0.0,   -1.4,   0.00,   0.00, 1017.4,   85.3, -999.0
02-04-2022, 00:09:44,    344,    0.0,   -1.5,   0.00,   0.00, 1017.4,   85.5, -999.0
02-04-2022, 00:09:53,    345,    0.0,   -1.5,   0.00,   0.00, 1017.4,   85.6, -999.0
02-04-2022, 00:10:04,    344,    0.0,   -1.4,   0.00,   0.00, 1017.4,   85.8, -999.0
02-04-2022, 00:10:14,    344,    0.0,   -1.4,   0.00,   0.00, 1017.4,   85.7, -999.0
02-04-2022, 00:10:23,    345,    0.0,   -1.4,   0.00,   0.00, 1017.4,   85.8, -999.0
02-04-2022, 00:10:34,    344,    0.0,   -1.4,   0.00,   0.00, 1017.4,   85.8, -999.0
02-04-2022, 00:10:44,    344,    0.0,   -1.4,   0.00,   0.00, 1017.4,   85.8, -999.0
02-04-2022, 00:10:53,    344,    0.0,   -1.4,   0.00,   0.00, 1017.3,   85.7, -999.0
02-04-2022, 00:11:03,    344,    0.0,   -1.4,   0.00,   0.00, 1017.4,   85.7, -999.0
02-04-2022, 00:11:14,    344,    0.0,   -1.3,   0.00,   0.00, 1017.4,   86.0, -999.0
02-04-2022, 00:11:23,    344,    0.0,   -1.4,   0.00,   0.00, 1017.4,   85.9, -999.0
02-04-2022, 00:11:33,    344,    0.0,   -1.3,   0.00,   0.00, 1017.4,   86.0, -999.0
02-04-2022, 00:11:43,    344,    0.0,   -1.4,   0.00,   0.00, 1017.4,   86.0, -999.0
02-04-2022, 00:11:53,    344,    0.0,   -1.4,   0.00,   0.00, 1017.4,   86.0, -999.0
02-04-2022, 00:12:03,    344,    0.0,   -1.3,   0.00,   0.00, 1017.4,   86.1, -999.0
02-04-2022, 00:12:13,    344,    0.0,   -1.4,   0.00,   0.00, 1017.4,   85.9, -999.0
02-04-2022, 00:12:23,    344,    0.0,   -1.3,   0.00,   0.00, 1017.4,   86.0, -999.0
02-04-2022, 00:12:33,    344,    0.0,   -1.3,   0.00,   0.00, 1017.4,   86.0, -999.0
02-04-2022, 00:12:43,    344,    0.0,   -1.4,   0.00,   0.00, 1017.4,   86.0, -999.0
02-04-2022, 00:12:53,    344,    0.0,   -1.3,   0.00,   0.00, 1017.4,   86.2, -999.0
02-04-2022, 00:13:03,    344,    0.0,   -1.3,   0.00,   0.00, 1017.4,   86.1, -999.0
02-04-2022, 00:13:13,    344,    0.0,   -1.3,   0.00,   0.00, 1017.4,   86.1, -999.0
02-04-2022, 00:13:23,    344,    0.0,   -1.3,   0.00,   0.00, 1017.4,   86.2, -999.0
02-04-2022, 00:13:33,    344,    0.0,   -1.3,   0.00,   0.00, 1017.4,   86.3, -999.0
02-04-2022, 00:13:43,    344,    0.0,   -1.3,   0.00,   0.00, 1017.4,   86.3, -999.0
02-04-2022, 00:13:53,    344,    0.0,   -1.3,   0.00,   0.00, 1017.4,   86.1, -999.0
02-04-2022, 00:14:02,    344,    0.0,   -1.3,   0.00,   0.00, 1017.4,   86.1, -999.0
02-04-2022, 00:14:12,    344,    0.0,   -1.3,   0.00,   0.00, 1017.4,   86.1, -999.0
02-04-2022, 00:14:23,    344,    0.0,   -1.3,   0.00,   0.00, 1017.4,   86.2, -999.0
02-04-2022, 00:14:32,    344,    0.0,   -1.3,   0.00,   0.00, 1017.4,   86.1, -999.0
02-04-2022, 00:14:42,    344,    0.0,   -1.3,   0.00,   0.00, 1017.4,   86.1, -999.0
02-04-2022, 00:14:52,    344,    0.0,   -1.3,   0.00,   0.00, 1017.4,   86.2, -999.0
02-04-2022, 00:15:02,    345,    0.0,   -1.3,   0.00,   0.00, 1017.4,   86.1, -999.0
02-04-2022, 00:15:12,    344,    0.0,   -1.3,   0.00,   0.00, 1017.4,   86.2, -999.0
02-04-2022, 00:15:22,    344,    0.0,   -1.3,   0.00,   0.00, 1017.4,   86.1, -999.0
02-04-2022, 00:15:32,    344,    0.0,   -1.3,   0.00,   0.00, 1017.4,   86.1, -999.0
02-04-2022, 00:15:42,    345,    0.0,   -1.3,   0.00,   0.00, 1017.4,   86.2, -999.0
02-04-2022, 00:15:52,    344,    0.0,   -1.3,   0.00,   0.00, 1017.4,   86.3, -999.0
02-04-2022, 00:16:02,    344,    0.0,   -1.3,   0.00,   0.00, 1017.4,   86.1, -999.0
02-04-2022, 00:16:12,    345,    0.0,   -1.4,   0.00,   0.00, 1017.4,   86.2, -999.0
02-04-2022, 00:16:22,    344,    0.0,   -1.4,   0.00,   0.00, 1017.4,   86.1, -999.0
02-04-2022, 00:16:32,    344,    0.0,   -1.3,   0.00,   0.00, 1017.4,   86.1, -999.0
02-04-2022, 00:16:42,    344,    0.0,   -1.4,   0.00,   0.00, 1017.4,   86.1, -999.0
02-04-2022, 00:16:52,    344,    0.0,   -1.4,   0.00,   0.00, 1017.4,   86.2, -999.0
02-04-2022, 00:17:02,    344,    0.0,   -1.3,   0.00,   0.00, 1017.4,   86.2, -999.0
02-04-2022, 00:17:12,    344,    0.0,   -1.3,   0.00,   0.00, 1017.4,   86.0, -999.0
02-04-2022, 00:17:21,    344,    0.0,   -1.3,   0.00,   0.00, 1017.4,   86.0, -999.0
02-04-2022, 00:17:32,    344,    0.0,   -1.3,   0.00,   0.00, 1017.3,   86.0, -999.0
02-04-2022, 00:17:42,    344,    0.0,   -1.3,   0.00,   0.00, 1017.4,   86.1, -999.0
02-04-2022, 00:17:51,    344,    0.0,   -1.3,   0.00,   0.00, 1017.4,   86.0, -999.0
02-04-2022, 00:18:02,    344,    0.0,   -1.3,   0.00,   0.00, 1017.4,   86.0, -999.0
02-04-2022, 00:18:11,    344,    0.0,   -1.4,   0.00,   0.00, 1017.4,   85.9, -999.0
02-04-2022, 00:18:21,    344,    0.0,   -1.4,   0.00,   0.00, 1017.4,   85.9, -999.0
02-04-2022, 00:18:31,    344,    0.0,   -1.3,   0.00,   0.00, 1017.4,   85.8, -999.0
02-04-2022, 00:18:41,    344,    0.0,   -1.3,   0.00,   0.00, 1017.4,   85.8, -999.0
02-04-2022, 00:18:51,    344,    0.0,   -1.4,   0.00,   0.00, 1017.4,   85.9, -999.0
02-04-2022, 00:19:01,    344,    0.0,   -1.3,   0.00,   0.00, 1017.4,   85.9, -999.0
02-04-2022, 00:19:11,    344,    0.0,   -1.3,   0.00,   0.00, 1017.4,   85.9, -999.0
02-04-2022, 00:19:21,    344,    0.0,   -1.4,   0.00,   0.00, 1017.4,   85.9, -999.0
02-04-2022, 00:19:31,    345,    0.0,   -1.3,   0.00,   0.00, 1017.4,   86.0, -999.0
02-04-2022, 00:19:41,    344,    0.0,   -1.3,   0.00,   0.00, 1017.4,   86.0, -999.0
02-04-2022, 00:19:51,    344,    0.0,   -1.3,   0.00,   0.00, 1017.4,   86.0, -999.0
02-04-2022, 00:20:01,    344,    0.0,   -1.3,   0.00,   0.00, 1017.4,   86.0, -999.0
02-04-2022, 00:20:11,    344,    0.0,   -1.4,   0.00,   0.00, 1017.4,   86.0, -999.0
02-04-2022, 00:20:21,    344,    0.0,   -1.3,   0.00,   0.00, 1017.4,   86.1, -999.0
02-04-2022, 00:20:30,    344,    0.0,   -1.2,   0.00,   0.00, 1017.4,   86.1, -999.0
02-04-2022, 00:20:41,    344,    0.0,   -1.2,   0.00,   0.00, 1017.4,   86.2, -999.0
02-04-2022, 00:20:51,    344,    0.0,   -1.3,   0.00,   0.00, 1017.4,   86.1, -999.0
02-04-2022, 00:21:00,    344,    0.0,   -1.3,   0.00,   0.00, 1017.4,   86.2, -999.0
02-04-2022, 00:21:11,    344,    0.0,   -1.3,   0.00,   0.00, 1017.4,   86.0, -999.0
02-04-2022, 00:21:21,    344,    0.0,   -1.2,   0.00,   0.00, 1017.4,   86.0, -999.0
02-04-2022, 00:21:30,    344,    0.0,   -1.4,   0.00,   0.00, 1017.4,   86.0, -999.0
02-04-2022, 00:21:40,    345,    0.0,   -1.3,   0.00,   0.00, 1017.4,   85.9, -999.0
02-04-2022, 00:21:51,    344,    0.0,   -1.3,   0.00,   0.00, 1017.4,   85.9, -999.0
02-04-2022, 00:22:00,    344,    0.0,   -1.3,   0.00,   0.00, 1017.4,   85.9, -999.0
02-04-2022, 00:22:10,    345,    0.0,   -1.3,   0.00,   0.00, 1017.4,   86.1, -999.0
02-04-2022, 00:22:20,    344,    0.0,   -1.3,   0.00,   0.00, 1017.4,   85.9, -999.0
02-04-2022, 00:22:30,    344,    0.0,   -1.3,   0.00,   0.00, 1017.4,   85.9, -999.0
02-04-2022, 00:22:40,    344,    0.0,   -1.3,   0.00,   0.00, 1017.4,   85.9, -999.0
02-04-2022, 00:22:50,    344,    0.0,   -1.3,   0.00,   0.00, 1017.4,   85.8, -999.0
02-04-2022, 00:23:00,    344,    0.0,   -1.3,   0.00,   0.00, 1017.4,   85.8, -999.0
02-04-2022, 00:23:10,    344,    0.0,   -1.3,   0.00,   0.00, 1017.4,   85.9, -999.0
02-04-2022, 00:23:20,    344,    0.0,   -1.2,   0.00,   0.00, 1017.4,   85.9, -999.0
02-04-2022, 00:23:30,    344,    0.0,   -1.3,   0.00,   0.00, 1017.4,   85.9, -999.0
02-04-2022, 00:23:40,    344,    0.0,   -1.3,   0.00,   0.00, 1017.4,   85.9, -999.0
02-04-2022, 00:23:50,    344,    0.0,   -1.3,   0.00,   0.00, 1017.4,   85.9, -999.0
02-04-2022, 00:24:00,    344,    0.0,   -1.3,   0.00,   0.00, 1017.4,   85.9, -999.0
02-04-2022, 00:24:10,    344,    0.0,   -1.3,   0.00,   0.00, 1017.4,   85.9, -999.0
02-04-2022, 00:24:20,    344,    0.0,   -1.3,   0.00,   0.00, 1017.4,   85.7, -999.0
02-04-2022, 00:24:30,    344,    0.0,   -1.3,   0.00,   0.00, 1017.4,   85.8, -999.0
02-04-2022, 00:24:39,    344,    0.0,   -1.4,   0.00,   0.00, 1017.4,   85.8, -999.0
02-04-2022, 00:24:49,    344,    0.0,   -1.4,   0.00,   0.00, 1017.4,   85.9, -999.0
02-04-2022, 00:25:00,    344,    0.0,   -1.3,   0.00,   0.00, 1017.4,   85.8, -999.0
02-04-2022, 00:25:09,    344,    0.0,   -1.3,   0.00,   0.00, 1017.4,   85.9, -999.0
02-04-2022, 00:25:19,    345,    0.0,   -1.4,   0.00,   0.00, 1017.4,   86.0, -999.0
02-04-2022, 00:25:29,    344,    0.0,   -1.3,   0.00,   0.00, 1017.4,   85.9, -999.0
02-04-2022, 00:25:39,    344,    0.0,   -1.3,   0.00,   0.00, 1017.4,   86.0, -999.0
02-04-2022, 00:25:49,    344,    0.0,   -1.3,   0.00,   0.00, 1017.4,   85.9, -999.0
02-04-2022, 00:25:59,    344,    0.0,   -1.4,   0.00,   0.00, 1017.4,   86.0, -999.0
02-04-2022, 00:26:09,    344,    0.0,   -1.3,   0.00,   0.00, 1017.4,   86.0, -999.0
02-04-2022, 00:26:19,    344,    0.0,   -1.4,   0.00,   0.00, 1017.4,   86.0, -999.0
02-04-2022, 00:26:29,    344,    0.0,   -1.3,   0.00,   0.00, 1017.4,   86.1, -999.0
02-04-2022, 00:26:39,    345,    0.0,   -1.3,   0.00,   0.00, 1017.4,   86.1, -999.0
02-04-2022, 00:26:49,    344,    0.0,   -1.3,   0.00,   0.00, 1017.4,   86.1, -999.0
02-04-2022, 00:26:59,    344,    0.0,   -1.3,   0.00,   0.00, 1017.4,   86.1, -999.0
02-04-2022, 00:27:09,    344,    0.0,   -1.3,   0.00,   0.00, 1017.4,   86.1, -999.0
02-04-2022, 00:27:19,    344,    0.0,   -1.3,   0.00,   0.00, 1017.4,   86.1, -999.0
02-04-2022, 00:27:29,    344,    0.0,   -1.3,   0.00,   0.00, 1017.4,   86.0, -999.0
02-04-2022, 00:27:39,    345,    0.0,   -1.3,   0.00,   0.00, 1017.4,   86.0, -999.0
02-04-2022, 00:27:49,    344,    0.0,   -1.3,   0.00,   0.00, 1017.4,   86.1, -999.0
02-04-2022, 00:27:58,    344,    0.0,   -1.3,   0.00,   0.00, 1017.4,   86.1, -999.0
02-04-2022, 00:28:09,    344,    0.0,   -1.2,   0.00,   0.00, 1017.4,   86.0, -999.0
02-04-2022, 00:28:19,    344,    0.0,   -1.3,   0.00,   0.00, 1017.4,   86.3, -999.0
02-04-2022, 00:28:28,    344,    0.0,   -1.4,   0.00,   0.00, 1017.4,   86.2, -999.0
02-04-2022, 00:28:39,    344,    0.0,   -1.3,   0.00,   0.00, 1017.4,   86.2, -999.0
02-04-2022, 00:28:48,    344,    0.0,   -1.3,   0.00,   0.00, 1017.4,   86.2, -999.0
02-04-2022, 00:28:58,    344,    0.0,   -1.3,   0.00,   0.00, 1017.4,   86.2, -999.0
02-04-2022, 00:29:08,    344,    0.0,   -1.3,   0.00,   0.00, 1017.4,   86.1, -999.0
02-04-2022, 00:29:18,    344,    0.0,   -1.3,   0.00,   0.00, 1017.4,   86.3, -999.0
02-04-2022, 00:29:28,    344,    0.0,   -1.3,   0.00,   0.00, 1017.4,   86.1, -999.0
02-04-2022, 00:29:38,    345,    0.0,   -1.3,   0.00,   0.00, 1017.4,   86.1, -999.0
02-04-2022, 00:29:48,    344,    0.0,   -1.3,   0.00,   0.00, 1017.4,   86.2, -999.0
02-04-2022, 00:29:58,    344,    0.0,   -1.4,   0.00,   0.00, 1017.4,   86.1, -999.0
02-04-2022, 00:30:08,    344,    0.0,   -1.2,   0.00,   0.00, 1017.4,   86.2, -999.0
02-04-2022, 00:30:18,    344,    0.0,   -1.2,   0.00,   0.00, 1017.4,   86.4, -999.0
02-04-2022, 00:30:28,    344,    0.0,   -1.3,   0.00,   0.00, 1017.4,   86.2, -999.0
02-04-2022, 00:30:38,    344,    0.0,   -1.2,   0.00,   0.00, 1017.4,   86.3, -999.0
02-04-2022, 00:30:48,    345,    0.0,   -1.2,   0.00,   0.00, 1017.4,   86.2, -999.0
02-04-2022, 00:30:58,    344,    0.0,   -1.3,   0.00,   0.00, 1017.4,   86.2, -999.0
02-04-2022, 00:31:08,    345,    0.0,   -1.3,   0.00,   0.00, 1017.4,   86.3, -999.0
02-04-2022, 00:31:18,    344,    0.0,   -1.3,   0.00,   0.00, 1017.4,   86.2, -999.0
02-04-2022, 00:31:28,    344,    0.0,   -1.3,   0.00,   0.00, 1017.4,   86.2, -999.0
02-04-2022, 00:31:37,    345,    0.0,   -1.2,   0.00,   0.00, 1017.4,   86.2, -999.0
02-04-2022, 00:31:48,    344,    0.0,   -1.3,   0.00,   0.00, 1017.4,   86.2, -999.0
02-04-2022, 00:31:58,    344,    0.0,   -1.3,   0.00,   0.00, 1017.4,   86.3, -999.0
02-04-2022, 00:32:07,    345,    0.0,   -1.2,   0.00,   0.00, 1017.4,   86.2, -999.0
02-04-2022, 00:32:17,    344,    0.0,   -1.3,   0.00,   0.00, 1017.4,   86.3, -999.0
02-04-2022, 00:32:27,    344,    0.0,   -1.3,   0.00,   0.00, 1017.4,   86.3, -999.0
02-04-2022, 00:32:37,    344,    0.0,   -1.3,   0.00,   0.00, 1017.4,   86.2, -999.0
02-04-2022, 00:32:47,    344,    0.0,   -1.2,   0.00,   0.00, 1017.4,   86.2, -999.0
02-04-2022, 00:32:57,    344,    0.0,   -1.3,   0.00,   0.00, 1017.4,   86.2, -999.0
02-04-2022, 00:33:07,    344,    0.0,   -1.1,   0.00,   0.00, 1017.4,   86.3, -999.0
02-04-2022, 00:33:17,    344,    0.0,   -1.2,   0.00,   0.00, 1017.4,   86.3, -999.0
02-04-2022, 00:33:27,    344,    0.0,   -1.2,   0.00,   0.00, 1017.4,   86.3, -999.0
02-04-2022, 00:33:37,    344,    0.0,   -1.2,   0.00,   0.00, 1017.4,   86.3, -999.0
02-04-2022, 00:33:47,    345,    0.0,   -1.2,   0.00,   0.00, 1017.4,   86.3, -999.0
02-04-2022, 00:33:57,    345,    0.0,   -1.2,   0.00,   0.00, 1017.4,   86.3, -999.0
02-04-2022, 00:34:07,    345,    0.0,   -1.2,   0.00,   0.00, 1017.4,   86.3, -999.0
02-04-2022, 00:34:17,    344,    0.0,   -1.2,   0.00,   0.00, 1017.4,   86.2, -999.0
02-04-2022, 00:34:27,    344,    0.0,   -1.2,   0.00,   0.00, 1017.4,   86.2, -999.0
02-04-2022, 00:34:37,    344,    0.0,   -1.2,   0.00,   0.00, 1017.4,   86.2, -999.0
02-04-2022, 00:34:46,    345,    0.0,   -1.2,   0.00,   0.00, 1017.4,   86.2, -999.0
02-04-2022, 00:34:57,    345,    0.0,   -1.1,   0.00,   0.00, 1017.4,   86.3, -999.0
02-04-2022, 00:35:07,    344,    0.0,   -1.1,   0.00,   0.00, 1017.4,   86.2, -999.0
02-04-2022, 00:35:16,    344,    0.0,   -1.1,   0.00,   0.00, 1017.4,   86.2, -999.0
02-04-2022, 00:35:27,    344,    0.0,   -1.1,   0.00,   0.00, 1017.4,   86.3, -999.0
02-04-2022, 00:35:37,    344,    0.0,   -1.2,   0.00,   0.00, 1017.4,   86.1, -999.0
02-04-2022, 00:35:46,    344,    0.0,   -1.1,   0.00,   0.00, 1017.4,   86.2, -999.0
02-04-2022, 00:35:56,    345,    0.0,   -1.1,   0.00,   0.00, 1017.4,   86.2, -999.0
02-04-2022, 00:36:07,    344,    0.0,   -1.1,   0.00,   0.00, 1017.4,   86.2, -999.0
02-04-2022, 00:36:16,    345,    0.0,   -1.2,   0.00,   0.00, 1017.4,   86.2, -999.0
02-04-2022, 00:36:26,    345,    0.0,   -1.2,   0.00,   0.00, 1017.4,   86.2, -999.0
02-04-2022, 00:36:36,    344,    0.0,   -1.3,   0.00,   0.00, 1017.4,   86.1, -999.0
02-04-2022, 00:36:46,    345,    0.0,   -1.2,   0.00,   0.00, 1017.4,   86.1, -999.0
02-04-2022, 00:36:56,    344,    0.0,   -1.2,   0.00,   0.00, 1017.4,   86.2, -999.0
02-04-2022, 00:37:06,    344,    0.0,   -1.2,   0.00,   0.00, 1017.4,   86.2, -999.0
02-04-2022, 00:37:16,    344,    0.0,   -1.1,   0.00,   0.00, 1017.4,   86.2, -999.0
02-04-2022, 00:37:26,    344,    0.0,   -1.1,   0.00,   0.00, 1017.4,   86.2, -999.0
02-04-2022, 00:37:36,    344,    0.0,   -1.1,   0.00,   0.00, 1017.4,   86.3, -999.0
02-04-2022, 00:37:46,    345,    0.0,   -1.2,   0.00,   0.00, 1017.4,   86.1, -999.0
02-04-2022, 00:37:56,    344,    0.0,   -1.1,   0.00,   0.00, 1017.4,   86.2, -999.0
02-04-2022, 00:38:06,    344,    0.0,   -1.2,   0.00,   0.00, 1017.4,   86.2, -999.0
02-04-2022, 00:38:16,    344,    0.0,   -1.3,   0.00,   0.00, 1017.4,   86.1, -999.0
02-04-2022, 00:38:25,    344,    0.0,   -1.1,   0.00,   0.00, 1017.4,   86.1, -999.0
02-04-2022, 00:38:36,    344,    0.0,   -1.2,   0.00,   0.00, 1017.5,   86.0, -999.0
02-04-2022, 00:38:46,    344,    0.0,   -1.2,   0.00,   0.00, 1017.4,   86.0, -999.0
02-04-2022, 00:38:55,    344,    0.0,   -1.2,   0.00,   0.00, 1017.4,   86.1, -999.0
02-04-2022, 00:39:05,    344,    0.0,   -1.2,   0.00,   0.00, 1017.4,   86.1, -999.0
02-04-2022, 00:39:16,    344,    0.0,   -1.2,   0.00,   0.00, 1017.4,   86.1, -999.0
02-04-2022, 00:39:25,    344,    0.0,   -1.2,   0.00,   0.00, 1017.4,   86.0, -999.0
02-04-2022, 00:39:35,    344,    0.0,   -1.2,   0.00,   0.00, 1017.4,   86.0, -999.0
02-04-2022, 00:39:45,    345,    0.0,   -1.2,   0.00,   0.00, 1017.4,   86.1, -999.0
02-04-2022, 00:39:55,    344,    0.0,   -1.2,   0.00,   0.00, 1017.4,   86.1, -999.0
02-04-2022, 00:40:05,    344,    0.0,   -1.2,   0.00,   0.00, 1017.4,   85.8, -999.0
02-04-2022, 00:40:15,    344,    0.0,   -1.2,   0.00,   0.00, 1017.4,   86.0, -999.0
02-04-2022, 00:40:25,    344,    0.0,   -1.2,   0.00,   0.00, 1017.4,   85.9, -999.0
02-04-2022, 00:40:35,    344,    0.0,   -1.3,   0.00,   0.00, 1017.4,   86.1, -999.0
02-04-2022, 00:40:45,    344,    0.0,   -1.2,   0.00,   0.00, 1017.5,   85.9, -999.0
02-04-2022, 00:40:55,    344,    0.0,   -1.3,   0.00,   0.00, 1017.4,   86.1, -999.0
02-04-2022, 00:41:05,    344,    0.0,   -1.2,   0.00,   0.00, 1017.5,   86.1, -999.0
02-04-2022, 00:41:15,    345,    0.0,   -1.2,   0.00,   0.00, 1017.4,   86.0, -999.0
02-04-2022, 00:41:25,    345,    0.0,   -1.1,   0.00,   0.00, 1017.4,   86.0, -999.0
02-04-2022, 00:41:35,    344,    0.0,   -1.2,   0.00,   0.00, 1017.5,   86.0, -999.0
02-04-2022, 00:41:45,    344,    0.0,   -1.3,   0.00,   0.00, 1017.5,   85.9, -999.0
02-04-2022, 00:41:55,    344,    0.0,   -1.3,   0.00,   0.00, 1017.4,   85.8, -999.0
02-04-2022, 00:42:05,    344,    0.0,   -1.2,   0.00,   0.00, 1017.4,   85.8, -999.0
02-04-2022, 00:42:14,    344,    0.0,   -1.2,   0.00,   0.00, 1017.4,   85.8, -999.0
02-04-2022, 00:42:25,    344,    0.0,   -1.2,   0.00,   0.00, 1017.4,   86.0, -999.0
02-04-2022, 00:42:34,    344,    0.0,   -1.4,   0.00,   0.00, 1017.5,   86.0, -999.0
02-04-2022, 00:42:44,    344,    0.0,   -1.2,   0.00,   0.00, 1017.4,   86.0, -999.0
02-04-2022, 00:42:55,    344,    0.0,   -1.2,   0.00,   0.00, 1017.4,   86.0, -999.0
02-04-2022, 00:43:04,    344,    0.0,   -1.2,   0.00,   0.00, 1017.5,   86.0, -999.0
02-04-2022, 00:43:14,    344,    0.0,   -1.2,   0.00,   0.00, 1017.4,   86.0, -999.0
02-04-2022, 00:43:24,    344,    0.0,   -1.2,   0.00,   0.00, 1017.4,   86.0, -999.0
02-04-2022, 00:43:34,    344,    0.0,   -1.2,   0.00,   0.00, 1017.4,   86.1, -999.0
02-04-2022, 00:43:44,    344,    0.0,   -1.2,   0.00,   0.00, 1017.4,   86.1, -999.0
02-04-2022, 00:43:54,    345,    0.0,   -1.2,   0.00,   0.00, 1017.4,   86.1, -999.0
02-04-2022, 00:44:04,    344,    0.0,   -1.2,   0.00,   0.00, 1017.4,   86.1, -999.0
02-04-2022, 00:44:14,    344,    0.0,   -1.2,   0.00,   0.00, 1017.4,   86.1, -999.0
02-04-2022, 00:44:24,    344,    0.0,   -1.2,   0.00,   0.00, 1017.4,   86.1, -999.0
02-04-2022, 00:44:34,    344,    0.0,   -1.2,   0.00,   0.00, 1017.4,   85.9, -999.0
02-04-2022, 00:44:44,    345,    0.0,   -1.2,   0.00,   0.00, 1017.4,   85.9, -999.0
02-04-2022, 00:44:54,    344,    0.0,   -1.3,   0.00,   0.00, 1017.4,   85.9, -999.0
02-04-2022, 00:45:04,    344,    0.0,   -1.3,   0.00,   0.00, 1017.5,   86.0, -999.0
02-04-2022, 00:45:14,    344,    0.0,   -1.3,   0.00,   0.00, 1017.4,   86.0, -999.0
02-04-2022, 00:45:24,    344,    0.0,   -1.3,   0.00,   0.00, 1017.4,   86.0, -999.0
02-04-2022, 00:45:34,    345,    0.0,   -1.3,   0.00,   0.00, 1017.4,   85.9, -999.0
02-04-2022, 00:45:44,    345,    0.0,   -1.3,   0.00,   0.00, 1017.5,   85.9, -999.0
02-04-2022, 00:45:53,    344,    0.0,   -1.3,   0.00,   0.00, 1017.5,   85.9, -999.0
02-04-2022, 00:46:04,    344,    0.0,   -1.3,   0.00,   0.00, 1017.5,   85.9, -999.0
02-04-2022, 00:46:13,    344,    0.0,   -1.3,   0.00,   0.00, 1017.4,   86.0, -999.0
02-04-2022, 00:46:23,    344,    0.0,   -1.3,   0.00,   0.00, 1017.5,   86.0, -999.0
02-04-2022, 00:46:33,    345,    0.0,   -1.3,   0.00,   0.00, 1017.4,   86.0, -999.0
02-04-2022, 00:46:43,    344,    0.0,   -1.3,   0.00,   0.00, 1017.5,   86.1, -999.0